Location: Martz Observatory
(42.0083°N, 79.0667°W)
Time: 11:21:52
(UTC-05:00)

Meteor 1-23 Rocket - Visible Passes

Search period start: 21 November 2014 00:00
Search period end: 01 December 2014 00:00
Orbit: 837 x 889 km, 81.3° (Epoch: 20 November)

Date Brightness Start Highest point End Pass type
(mag) Time Alt. Az. Time Alt. Az. Time Alt. Az.
21 Nov 6.4 06:11:44 10° NNE 06:16:17 25° ENE 06:20:50 10° SE visible
22 Nov 6.4 06:03:30 10° NNE 06:08:02 25° ENE 06:12:34 10° ESE visible
23 Nov 6.4 05:55:15 10° NNE 05:59:46 25° ENE 06:04:18 10° ESE visible
24 Nov 6.4 05:47:01 10° NNE 05:51:31 24° ENE 05:56:02 10° ESE visible
25 Nov 6.4 05:38:46 10° NNE 05:43:16 24° ENE 05:47:46 10° ESE visible
26 Nov 6.4 05:30:32 10° NNE 05:35:01 24° ENE 05:39:30 10° ESE visible
26 Nov 6.2 18:42:22 10° SSE 18:43:01 13° SE 18:43:01 13° SE visible
26 Nov 6.8 20:25:01 10° SW 20:25:23 12° SW 20:25:23 12° SW visible
27 Nov 6.4 05:22:17 10° NNE 05:26:45 24° ENE 05:31:14 10° ESE visible
27 Nov 5.7 18:34:09 10° SSE 18:36:07 19° SE 18:36:07 19° SE visible
27 Nov 6.3 20:16:45 10° SW 20:18:29 19° SW 20:18:29 19° SW visible
28 Nov 6.4 05:14:03 10° NNE 05:18:30 24° ENE 05:22:58 10° ESE visible
28 Nov 5.2 18:25:55 10° SSE 18:29:14 26° ESE 18:29:14 26° ESE visible
28 Nov 5.9 20:08:29 10° SW 20:11:36 28° WSW 20:11:36 28° WSW visible
29 Nov 6.4 05:05:48 10° NNE 05:10:15 23° ENE 05:14:42 10° ESE visible
29 Nov 4.5 06:48:18 10° NNW 06:53:40 47° W 06:59:04 10° SSW visible
29 Nov 5.0 18:17:41 10° SE 18:22:20 28° E 18:22:22 28° E visible
29 Nov 5.5 20:00:14 10° SW 20:04:44 36° W 20:04:44 36° W visible
30 Nov 6.4 04:57:34 10° NNE 05:02:00 23° ENE 05:06:26 10° ESE visible
30 Nov 4.5 06:40:03 10° NNW 06:45:25 48° W 06:50:51 10° SSW visible
30 Nov 5.0 18:09:28 10° SE 18:14:05 28° E 18:15:28 25° ENE visible
30 Nov 5.4 19:51:58 10° SW 19:57:05 37° WNW 19:57:49 36° NW visible
